Voltar ao catálogo

FLOCK 4H 33

AtivoCiênciaSSO
NORAD 66736·PAYLOAD·🇺🇸 United States

Lançado Nov 28, 2025 de Vandenberg Space Force Base

Loading…

Próximas Passagens (próximas 24 horas)

TLE

AtualizadoSource: CelesTrak SupGP

Época: Sep 14, 2026, 06:45 UTC

1 66736C 25276BY  26257.28140046  .00003497  00000+0  15441-3 0  2574
2 66736  97.4148 329.8888 0002166  32.1065  75.4142 15.21811457    10

Acompanhe FLOCK 4H 33 em tempo real com AllMySat

Download on the App Store